This is the latest recevied weather packets stored in our database for station/object SK0BO-13. If no packets are shown the sender has not sent any weather packets the latest 10 day(s).
| Time | Temp. | Humidity | Pressure | Rain* | Wind** | Luminosity | Snow |
|---|---|---|---|---|---|---|---|
| 1777962162 | 20° C | 6% | 988.7 hPa | 0 mm | - | - | - |
| 1777959642 | 17.78° C | 11% | 987.7 hPa | 0 mm | - | - | - |
| 1777957122 | 12.78° C | 19% | 987.7 hPa | 0 mm | - | - | - |
| 1777954602 | 10° C | 23% | 987.7 hPa | 0 mm | - | - | - |
| 1777952083 | 10° C | 25% | 986.7 hPa | 0 mm | - | - | - |
| 1777949562 | 9.44° C | 23% | 986.7 hPa | 0 mm | - | - | - |
| 1777947042 | 9.44° C | 21% | 986.5 hPa | 0 mm | - | - | - |
| 1777944522 | 10° C | 17% | 986 hPa | 0 mm | - | - | - |
| 1777942003 | 10.56° C | 15% | 985.7 hPa | 0 mm | - | - | - |
| 1777939482 | 10.56° C | 13% | 985.7 hPa | 0 mm | - | - | - |
| 1777936962 | 11.11° C | 12% | 985.9 hPa | 0 mm | - | - | - |
| 1777934443 | 11.11° C | 11% | 986.4 hPa | 0 mm | - | - | - |
| 1777931922 | 11.67° C | 11% | 986.7 hPa | 0 mm | - | - | - |
| 1777929403 | 11.67° C | 11% | 986.7 hPa | 0 mm | - | - | - |
| 1777926882 | 12.22° C | 14% | 986.7 hPa | 0 mm | - | - | - |
| 1777924362 | 12.78° C | 15% | 986.7 hPa | 0 mm | - | - | - |
| 1777921842 | 13.89° C | 14% | 986.7 hPa | 0 mm | - | - | - |
| 1777919322 | 16.11° C | 11% | 986.7 hPa | 0 mm | - | - | - |
| 1777916802 | 18.33° C | 7% | 986.6 hPa | 0 mm | - | - | - |
| 1777914282 | 21.67° C | 100% | 986.7 hPa | 0 mm | - | - | - |
| 1777911762 | 26.67° C | - | 985.9 hPa | 0 mm | - | - | - |
| 1777909242 | 28.33° C | - | 985.7 hPa | 0 mm | - | - | - |
| 1777906723 | 26.67° C | 3% | 985.7 hPa | 0 mm | - | - | - |
| 1777904202 | 27.78° C | 1% | 985.7 hPa | 0 mm | - | - | - |
| 1777901683 | 28.33° C | 2% | 985.7 hPa | 0 mm | - | - | - |
* Rain latest hour (hover to see other rain measurements)
** Current wind speed in m/s (hover to see current wind gust speed)